This is the latest recevied weather packets stored in our database for station/object KA9CBS. If no packets are shown the sender has not sent any weather packets the latest 10 day(s).
| Time | Temp. | Humidity | Pressure | Rain* | Wind** | Luminosity | Snow |
|---|---|---|---|---|---|---|---|
| 1788134795 | 28.89° C | 57% | 1017.8 hPa | 0 mm | - | 13 W/m² | - |
| 1788134494 | 29.44° C | 56% | 1017.6 hPa | 0 mm | - | 16 W/m² | - |
| 1788134187 | 30° C | 56% | 1017.9 hPa | 0 mm | - | 19 W/m² | - |
| 1788133882 | 30° C | 54% | 1017.7 hPa | 0 mm | - | 25 W/m² | - |
| 1788133577 | 30° C | 54% | 1018.1 hPa | 0 mm | - | 27 W/m² | - |
| 1788133273 | 30.56° C | 52% | 1017.9 hPa | 0 mm | - | 30 W/m² | - |
| 1788132968 | 30.56° C | 52% | 1018.1 hPa | 0 mm | - | 33 W/m² | - |
| 1788132664 | 30.56° C | 52% | 1018.1 hPa | 0 mm | - | 37 W/m² | - |
| 1788132360 | 30.56° C | 51% | 1017.9 hPa | 0 mm | - | 41 W/m² | - |
| 1788132055 | 31.11° C | 49% | 1017.8 hPa | 0 mm | - | 40 W/m² | - |
| 1788131751 | 31.11° C | 49% | 1018.1 hPa | 0 mm | - | 40 W/m² | - |
| 1788131450 | 31.11° C | 49% | 1017.9 hPa | 0 mm | - | 39 W/m² | - |
| 1788131146 | 31.11° C | 49% | 1018 hPa | 0 mm | - | 41 W/m² | - |
| 1788130846 | 31.11° C | 48% | 1018 hPa | 0 mm | - | 44 W/m² | - |
| 1788130541 | 31.67° C | 48% | 1017.7 hPa | 0 mm | - | 45 W/m² | - |
| 1788130236 | 31.67° C | 46% | 1017.9 hPa | 0 mm | - | 49 W/m² | - |
| 1788129934 | 31.67° C | 47% | 1017.7 hPa | 0 mm | - | 60 W/m² | - |
| 1788129632 | 31.67° C | 46% | 1018 hPa | 0 mm | - | 54 W/m² | - |
| 1788129328 | 31.67° C | 46% | 1018 hPa | 0 mm | - | 61 W/m² | - |
| 1788129028 | 31.67° C | 46% | 1018 hPa | 0 mm | - | 61 W/m² | - |
| 1788128722 | 32.22° C | 47% | 1017.9 hPa | 0 mm | - | 63 W/m² | - |
| 1788128418 | 32.22° C | 49% | 1017.7 hPa | 0 mm | - | 96 W/m² | - |
| 1788128114 | 32.22° C | 48% | 1018 hPa | 0 mm | - | 63 W/m² | - |
| 1788127810 | 32.22° C | 50% | 1018.1 hPa | 0 mm | - | 63 W/m² | - |
| 1788127509 | 32.22° C | 47% | 1018.1 hPa | 0 mm | - | 110 W/m² | - |
* Rain latest hour (hover to see other rain measurements)
** Current wind speed in m/s (hover to see current wind gust speed)